• In Germany
  • List of Countries
  • For 7 days
  • Water Temperature
  • Satellite Maps
  • Weather Map
  • Weather Widgets
  • user-avatar
    Login

    Hourly Weather Bolshoy Dolzhik

    Today, 18 July, Wednesday

    Time Temperature Precipitation Wind Pressure Humidity
    00:00 +22°C° 0 mm 5 mps 749 mmHg 73%
    01:00 +22°C° 0.1 mm 5 mps 749 mmHg 75%
    02:00 +22°C° 0.1 mm 5 mps 749 mmHg 77%
    03:00 +21°C° 0 mm 3 mps 749 mmHg 80%
    04:00 +21°C° 0.1 mm 4 mps 749 mmHg 80%
    05:00 +21°C° 0.1 mm 4 mps 749 mmHg 81%
    06:00 +21°C° 0.1 mm 4 mps 749 mmHg 81%
    07:00 +23°C° 0.1 mm 5 mps 749 mmHg 73%
    08:00 +26°C° 0.1 mm 6 mps 749 mmHg 65%
    09:00 +27°C° 0.1 mm 6 mps 749 mmHg 57%
    10:00 +28°C° 0 mm 7 mps 749 mmHg 53%
    11:00 +29°C° 0 mm 7 mps 749 mmHg 50%
    12:00 +30°C° 0 mm 7 mps 749 mmHg 47%
    13:00 +30°C° 0 mm 7 mps 749 mmHg 45%
    14:00 +32°C° 0 mm 7 mps 749 mmHg 44%
    15:00 +32°C° 0 mm 7 mps 749 mmHg 43%
    16:00 +30°C° 0 mm 7 mps 749 mmHg 45%
    17:00 +30°C° 0 mm 7 mps 749 mmHg 46%
    18:00 +29°C° 0 mm 6 mps 749 mmHg 48%
    19:00 +28°C° 0 mm 5 mps 749 mmHg 52%
    20:00 +26°C° 0 mm 4 mps 750 mmHg 56%
    21:00 +25°C° 0 mm 3 mps 750 mmHg 61%
    22:00 +24°C° 0 mm 3 mps 750 mmHg 61%
    23:00 +24°C° 0 mm 2 mps 750 mmHg 62%

    Tomorrow, 19 July, Thursday

    Time Temperature Precipitation Wind Pressure Humidity
    00:00 +23°C° 0 mm 2 mps 750 mmHg 63%
    01:00 +23°C° 0 mm 2 mps 750 mmHg 64%
    02:00 +23°C° 0 mm 2 mps 750 mmHg 66%
    03:00 +23°C° 0 mm 2 mps 750 mmHg 68%
    04:00 +23°C° 0.1 mm 2 mps 750 mmHg 69%
    05:00 +23°C° 0.1 mm 2 mps 750 mmHg 70%
    06:00 +23°C° 0.1 mm 2 mps 750 mmHg 72%
    07:00 +25°C° 0.1 mm 2 mps 750 mmHg 66%
    08:00 +26°C° 0.1 mm 3 mps 750 mmHg 61%
    09:00 +28°C° 0.1 mm 3 mps 750 mmHg 56%
    10:00 +29°C° 0.2 mm 3 mps 750 mmHg 54%
    11:00 +29°C° 0.2 mm 4 mps 751 mmHg 51%
    12:00 +30°C° 0.2 mm 4 mps 751 mmHg 49%
    13:00 +30°C° 0.1 mm 4 mps 751 mmHg 49%
    14:00 +30°C° 0.1 mm 4 mps 750 mmHg 49%
    15:00 +30°C° 0.1 mm 3 mps 750 mmHg 48%
    16:00 +30°C° 0 mm 3 mps 750 mmHg 49%
    17:00 +30°C° 0 mm 3 mps 750 mmHg 50%
    18:00 +30°C° 0 mm 3 mps 750 mmHg 51%
    19:00 +29°C° 0.2 mm 2 mps 751 mmHg 55%
    20:00 +27°C° 0.2 mm 2 mps 751 mmHg 60%
    21:00 +26°C° 0.2 mm 2 mps 751 mmHg 65%
    22:00 +25°C° 0.2 mm 2 mps 751 mmHg 67%
    23:00 +25°C° 0.2 mm 1 mps 751 mmHg 69%

    Day after tomorrow, 20 July, Friday

    Time Temperature Precipitation Wind Pressure Humidity
    00:00 +24°C° 0.2 mm 1 mps 751 mmHg 71%
    01:00 +24°C° 0 mm 1 mps 751 mmHg 72%
    02:00 +24°C° 0 mm 1 mps 751 mmHg 73%
    03:00 +23°C° 0 mm 1 mps 751 mmHg 75%
    04:00 +24°C° 0 mm 1 mps 751 mmHg 75%
    05:00 +24°C° 0 mm 1 mps 751 mmHg 76%
    06:00 +24°C° 0 mm 1 mps 751 mmHg 76%
    07:00 +25°C° 0 mm 1 mps 751 mmHg 71%
    08:00 +27°C° 0 mm 2 mps 751 mmHg 65%
    09:00 +28°C° 0 mm 3 mps 751 mmHg 59%
    10:00 +30°C° 0.1 mm 3 mps 751 mmHg 54%
    11:00 +31°C° 0.1 mm 3 mps 751 mmHg 49%
    12:00 +33°C° 0.1 mm 3 mps 751 mmHg 45%
    13:00 +33°C° 0 mm 3 mps 751 mmHg 44%
    14:00 +33°C° 0 mm 3 mps 751 mmHg 44%
    15:00 +33°C° 0 mm 3 mps 751 mmHg 43%
    16:00 +33°C° 0 mm 3 mps 751 mmHg 44%
    17:00 +33°C° 0 mm 3 mps 751 mmHg 44%
    18:00 +32°C° 0 mm 2 mps 751 mmHg 44%
    19:00 +30°C° 0.2 mm 2 mps 751 mmHg 49%
    20:00 +28°C° 0.2 mm 2 mps 751 mmHg 53%
    21:00 +27°C° 0.2 mm 2 mps 751 mmHg 58%
    22:00 +26°C° 0 mm 2 mps 751 mmHg 60%
    23:00 +25°C° 0 mm 2 mps 751 mmHg 62%

    21 July, Saturday

    Time Temperature Precipitation Wind Pressure Humidity
    00:00 +25°C° 0 mm 2 mps 751 mmHg 64%
    01:00 +24°C° 0.1 mm 1 mps 751 mmHg 66%
    02:00 +24°C° 0.1 mm 1 mps 751 mmHg 68%
    03:00 +23°C° 0.1 mm 1 mps 751 mmHg 70%
    04:00 +23°C° 0 mm 1 mps 751 mmHg 70%
    05:00 +24°C° 0 mm 1 mps 751 mmHg 71%
    06:00 +24°C° 0 mm 1 mps 751 mmHg 71%
    07:00 +26°C° 0 mm 1 mps 752 mmHg 64%
    08:00 +28°C° 0 mm 1 mps 752 mmHg 57%
    09:00 +29°C° 0 mm 2 mps 752 mmHg 50%
    10:00 +31°C° 0 mm 3 mps 752 mmHg 46%
    11:00 +33°C° 0 mm 3 mps 752 mmHg 42%
    12:00 +34°C° 0 mm 4 mps 752 mmHg 38%
    13:00 +34°C° 0 mm 4 mps 752 mmHg 37%
    14:00 +35°C° 0 mm 4 mps 751 mmHg 36%
    15:00 +35°C° 0 mm 4 mps 751 mmHg 35%
    16:00 +35°C° 0 mm 4 mps 751 mmHg 37%
    17:00 +34°C° 0 mm 3 mps 751 mmHg 39%
    18:00 +34°C° 0 mm 3 mps 752 mmHg 41%
    19:00 +31°C° 0 mm 3 mps 752 mmHg 46%
    20:00 +29°C° 0 mm 3 mps 752 mmHg 51%
    21:00 +28°C° 0 mm 2 mps 752 mmHg 56%
    22:00 +27°C° 0 mm 2 mps 752 mmHg 58%
    23:00 +26°C° 0 mm 2 mps 752 mmHg 61%

    22 July, Sunday

    Time Temperature Precipitation Wind Pressure Humidity
    00:00 +25°C° 0 mm 2 mps 752 mmHg 64%
    01:00 +25°C° 0 mm 2 mps 752 mmHg 66%
    02:00 +24°C° 0 mm 2 mps 752 mmHg 69%
    03:00 +24°C° 0 mm 2 mps 752 mmHg 71%
    04:00 +24°C° 0 mm 1 mps 752 mmHg 72%
    05:00 +24°C° 0 mm 1 mps 752 mmHg 73%
    06:00 +24°C° 0 mm 1 mps 752 mmHg 75%
    07:00 +26°C° 0 mm 2 mps 752 mmHg 68%
    08:00 +28°C° 0 mm 2 mps 752 mmHg 61%
    09:00 +30°C° 0 mm 3 mps 752 mmHg 54%
    10:00 +31°C° 0 mm 3 mps 752 mmHg 49%
    11:00 +33°C° 0 mm 3 mps 752 mmHg 45%
    12:00 +34°C° 0 mm 3 mps 752 mmHg 40%
    13:00 +35°C° 0 mm 3 mps 752 mmHg 39%
    14:00 +35°C° 0 mm 3 mps 751 mmHg 37%
    15:00 +36°C° 0 mm 3 mps 751 mmHg 36%
    16:00 +35°C° 0 mm 3 mps 751 mmHg 37%
    17:00 +35°C° 0 mm 3 mps 751 mmHg 38%
    18:00 +35°C° 0 mm 2 mps 751 mmHg 39%
    19:00 +32°C° 0 mm 2 mps 751 mmHg 43%
    20:00 +31°C° 0 mm 2 mps 751 mmHg 48%
    21:00 +29°C° 0 mm 2 mps 752 mmHg 52%
    22:00 +28°C° 0 mm 2 mps 752 mmHg 55%
    23:00 +28°C° 0 mm 1 mps 751 mmHg 58%

    23 July, Monday

    Time Temperature Precipitation Wind Pressure Humidity
    00:00 +27°C° 0 mm 1 mps 751 mmHg 60%
    01:00 +26°C° 0.1 mm 1 mps 751 mmHg 63%
    02:00 +26°C° 0.1 mm 1 mps 751 mmHg 65%
    03:00 +25°C° 0.1 mm 1 mps 751 mmHg 67%
    04:00 +26°C° 0.1 mm 1 mps 751 mmHg 68%
    05:00 +24°C° 0.1 mm 0 mps 751 mmHg 69%
    06:00 +24°C° 0.1 mm 0 mps 751 mmHg 70%
    07:00 +27°C° 0.1 mm 1 mps 751 mmHg 64%
    08:00 +29°C° 0.1 mm 1 mps 752 mmHg 58%
    09:00 +30°C° 0.1 mm 1 mps 752 mmHg 52%
    10:00 +32°C° 0 mm 2 mps 751 mmHg 47%
    11:00 +34°C° 0 mm 2 mps 751 mmHg 43%
    12:00 +35°C° 0 mm 3 mps 751 mmHg 39%
    13:00 +35°C° 0 mm 3 mps 751 mmHg 37%
    14:00 +36°C° 0 mm 3 mps 751 mmHg 36%
    15:00 +36°C° 0 mm 3 mps 751 mmHg 34%
    16:00 +36°C° 0 mm 3 mps 751 mmHg 36%
    17:00 +35°C° 0 mm 2 mps 751 mmHg 37%
    18:00 +35°C° 0 mm 2 mps 751 mmHg 39%
    19:00 +32°C° 0.3 mm 2 mps 751 mmHg 44%
    20:00 +30°C° 0.3 mm 2 mps 751 mmHg 49%
    21:00 +29°C° 0.3 mm 2 mps 751 mmHg 54%
    22:00 +28°C° 0.5 mm 2 mps 751 mmHg 58%
    23:00 +27°C° 0.5 mm 1 mps 751 mmHg 61%
    Show more